Springfield, MO

2:11 PM CDT on July 27, 2017 (GMT -0500)
Springfield-Branson Regional

Weather History for KSGF - June, 2013

Change the Weather History Date:

Saturday, June 1, 2013

  Actual Average Record
Temperature  
Mean Temperature 68 °F 70 °F  
Max Temperature 75 °F 80 °F 95 °F (1934)
Min Temperature 60 °F 59 °F 42 °F (1966)
Degree Days  
Heating Degree Days 0 1  
Month to date heating degree days 0 1  
Since 1 June heating degree days 0 1  
Since 1 July heating degree days 4494 4570  
Cooling Degree Days 3 6  
Month to date cooling degree days 3 6  
Year to date cooling degree days 131 121  
Since 1 June cooling degree days 3 6  
Growing Degree Days 19 (Base 50)    
Moisture  
Dew Point 62 °F    
Average Humidity 77    
Maximum Humidity 100    
Minimum Humidity 53    
Precipitation  
Precipitation 0.37 in 0.16 in 1.93 in (1932)
Month to date precipitation 0.37 0.16  
Year to date precipitation 24.09 18.19  
Snow  
Snow 0.00 in - - ()
Month to date snowfall 0.0  
Since 1 June snowfall 0.0  
Since 1 July snowfall 12.7  
Snow Depth 0.00 in    
Sea Level Pressure  
Sea Level Pressure 29.81 in    
Wind  
Wind Speed 10 mph (West)    
Max Wind Speed 20 mph    
Max Gust Speed 25 mph    
Visibility 9 miles    
Events Rain , Thunderstorm    
T = Trace of Precipitation, MM = Missing Value Source: NWS Daily Summary

Daily Weather History Graph

Daily Weather History Graph

Search for Another Location

Airport or City:

Trip Planner

Search our weather history database for the weather conditions in past years. The results will help you decide how hot, cold, wet, or windy it might be!

Date:

Astronomy

Jun. 01, 2013 Rise Set
Actual Time 5:54 AM CDT 8:28 PM CDT
Civil Twilight 5:24 AM CDT 8:58 PM CDT
Nautical Twilight 4:46 AM CDT 9:36 PM CDT
Astronomical Twilight 4:04 AM CDT 10:18 PM CDT
Moon 1:42 AM CDT (6/1) 2:06 PM CDT (6/1)
Length of Visible Light 15h 34m
Length of Day
14h 33m
Last Quarter, 40% of the Moon is Illuminated
Jun 1
Last Quarter
Jun 8
New
Jun 16
First Quarter
Jun 23
Full
Jun 29
Last Quarter

Hourly Weather History & Observations

Time (CDT) Temp. Dew Point Humidity Pressure Visibility Wind Dir Wind Speed Gust Speed Precip Events Conditions
12:06 AM 66.0 °F 64.0 °F 93% 29.84 in 8.0 mi Calm Calm - 0.00 in Rain , Thunderstorm Light Thunderstorms and Rain
12:12 AM 66.0 °F 64.0 °F 93% 29.84 in 1.8 mi ENE 8.1 mph - 0.09 in Rain , Thunderstorm Heavy Thunderstorms and Rain
12:24 AM 66.0 °F 63.0 °F 90% 29.85 in 3.0 mi West 5.8 mph - 0.39 in Rain , Thunderstorm Thunderstorms and Rain
12:52 AM 66.0 °F 64.0 °F 93% 29.76 in 9.0 mi ESE 5.8 mph - 0.52 in Rain , Thunderstorm Light Thunderstorms and Rain
1:31 AM 66.0 °F 62.1 °F 87% 29.74 in 10.0 mi SSW 13.8 mph - 0.05 in Rain , Thunderstorm Light Rain
1:52 AM 66.9 °F 64.0 °F 90% 29.72 in 10.0 mi NW 10.4 mph 21.9 mph 0.06 in Rain , Thunderstorm Light Thunderstorms and Rain
2:08 AM 66.9 °F 64.0 °F 90% 29.73 in 10.0 mi WSW 10.4 mph - 0.00 in Rain , Thunderstorm Light Rain
2:25 AM 66.9 °F 64.0 °F 90% 29.76 in 10.0 mi NNW 9.2 mph - 0.00 in Rain , Thunderstorm Light Thunderstorms and Rain
2:34 AM 66.0 °F 64.0 °F 93% 29.75 in 10.0 mi Calm Calm - 0.00 in Rain , Thunderstorm Light Thunderstorms and Rain
2:45 AM 66.0 °F 64.0 °F 93% 29.74 in 10.0 mi ENE 8.1 mph - 0.00 in Rain Light Rain
2:52 AM 66.0 °F 64.0 °F 93% 29.70 in 10.0 mi ENE 9.2 mph - 0.00 in Rain Light Rain
3:36 AM 66.0 °F 64.0 °F 93% 29.75 in 10.0 mi East 4.6 mph - 0.01 in Rain , Thunderstorm Light Rain
3:46 AM 66.2 °F 64.4 °F 94% 29.75 in 10.0 mi NNE 10.4 mph - 0.01 in Rain Light Rain
3:52 AM 66.0 °F 64.0 °F 93% 29.72 in 10.0 mi ENE 6.9 mph - 0.01 in Rain Light Rain
4:23 AM 64.9 °F 64.0 °F 97% 29.76 in 9.0 mi NNE 6.9 mph - 0.02 in Rain , Thunderstorm Light Rain
4:38 AM 64.9 °F 64.0 °F 97% 29.76 in 10.0 mi East 9.2 mph - 0.03 in Rain Light Rain
4:52 AM 64.9 °F 64.0 °F 97% 29.74 in 10.0 mi ESE 6.9 mph - 0.04 in Rain Light Rain
5:14 AM 66.0 °F 64.0 °F 93% 29.82 in 9.0 mi SSE 10.4 mph - 0.03 in Rain , Thunderstorm Thunderstorms and Rain
5:35 AM 68.0 °F 64.0 °F 87% 29.83 in 6.0 mi South 12.7 mph - 0.09 in Rain , Thunderstorm Rain
5:47 AM 66.2 °F 64.4 °F 94% 29.84 in 6.0 mi South 9.2 mph - 0.12 in Rain Rain
5:52 AM 66.9 °F 64.0 °F 90% 29.79 in 5.0 mi SE 10.4 mph - 0.14 in Rain Rain
6:52 AM 66.0 °F 64.0 °F 93% 29.76 in 10.0 mi SSE 17.3 mph - 0.12 in Rain Light Rain
7:52 AM 66.0 °F 64.0 °F 93% 29.73 in 10.0 mi SSE 9.2 mph - 0.01 in Rain Light Rain
8:52 AM 66.0 °F 63.0 °F 90% 29.78 in 10.0 mi SW 10.4 mph - 0.00 in   Clear
9:07 AM 66.0 °F 63.0 °F 90% 29.82 in 10.0 mi West 11.5 mph - N/A   Partly Cloudy
9:52 AM 64.9 °F 63.0 °F 93% 29.81 in 10.0 mi West 12.7 mph - N/A   Partly Cloudy
10:52 AM 66.9 °F 63.0 °F 87% 29.82 in 10.0 mi WSW 6.9 mph - N/A   Clear
11:52 AM 69.1 °F 63.0 °F 81% 29.84 in 10.0 mi WSW 12.7 mph - N/A   Partly Cloudy
12:52 PM 71.1 °F 63.0 °F 75% 29.84 in 10.0 mi WSW 13.8 mph - N/A   Clear
1:52 PM 73.9 °F 60.1 °F 62% 29.84 in 10.0 mi WSW 12.7 mph - N/A   Clear
2:52 PM 73.9 °F 61.0 °F 64% 29.85 in 10.0 mi WNW 10.4 mph - N/A   Partly Cloudy
3:52 PM 75.0 °F 60.1 °F 60% 29.86 in 10.0 mi West 18.4 mph 23.0 mph N/A   Scattered Clouds
4:52 PM 73.0 °F 57.0 °F 57% 29.87 in 10.0 mi WNW 13.8 mph 24.2 mph N/A   Scattered Clouds
5:52 PM 73.0 °F 55.0 °F 53% 29.87 in 10.0 mi WNW 15.0 mph 21.9 mph N/A   Partly Cloudy
6:52 PM 72.0 °F 55.0 °F 55% 29.88 in 10.0 mi WNW 17.3 mph 20.7 mph N/A   Clear
7:52 PM 68.0 °F 55.9 °F 65% 29.90 in 10.0 mi NW 10.4 mph - N/A   Clear
8:52 PM 64.0 °F 55.9 °F 75% 29.92 in 10.0 mi WNW 4.6 mph - N/A   Clear
9:52 PM 63.0 °F 55.9 °F 78% 29.94 in 10.0 mi West 5.8 mph - N/A   Clear
10:52 PM 64.0 °F 57.0 °F 78% 29.96 in 10.0 mi West 5.8 mph - N/A   Overcast
11:52 PM 64.0 °F 57.0 °F 78% 29.97 in 10.0 mi WNW 6.9 mph - N/A   Mostly Cloudy